Wind_Speed
40 38 39 40 44 40 42 43 46 44 44 48 46 46 46 54 53 49 49 51 53 53 52 53 53 54 56 57 58 60 61 62 62 63 64 63 61 60 59 59 60 59 57 57
41 43 45 46 41 44 45 47 49 50 51 53 54 52 51 52 59 58 52 57 57 56 55 55 56 57 59 60 61 63 63 64 64 64 64 62 60 59 59 58 58 58 59 60
42 42 46 44 42 44 45 48 50 54 56 56 58 55 55 55 58 63 60 60 60 60 60 59 59 60 61 62 62 61 61 61 61 60 60 59 57 57 57 56 58 62 62 62
43 42 43 46 47 48 50 51 54 55 57 57 57 60 53 52 55 61 60 60 58 55 56 59 58 58 58 59 59 58 57 56 56 55 55 55 55 56 56 58 60 61 61 61
45 45 46 49 51 54 54 56 56 57 58 59 58 58 59 48 49 61 60 58 52 52 52 53 53 54 55 55 55 54 54 54 54 54 55 54 55 57 58 59 60 59 58 59
45 48 48 51 53 53 53 53 53 52 51 55 53 40 55 44 41 49 58 47 47 49 48 49 50 51 51 51 51 51 52 52 53 53 53 55 56 57 57 58 57 55 50 48
49 48 49 49 49 47 47 47 47 45 34 38 31 32 28 41 47 46 42 44 44 46 45 44 45 45 46 46 47 46 47 48 50 52 52 52 51 50 51 51 49 43 42 41
43 43 49 47 36 38 39 40 36 33 32 29 25 32 31 38 45 40 43 41 40 40 40 39 37 36 38 40 42 44 46 46 47 47 46 44 42 40 42 43 42 38 37 34
42 40 39 36 34 28 29 30 28 32 33 38 37 35 34 37 37 38 38 35 33 32 31 31 33 34 34 35 37 38 39 38 38 38 37 36 32 36 39 40 39 38 37 34
37 38 34 35 28 27 27 26 29 29 30 27 21 20 26 28 27 30 32 35 35 32 28 28 27 27 28 30 33 34 34 34 33 32 32 31 33 34 36 36 36 37 35 35
34 36 33 31 26 27 22 29 30 26 25 28 29 25 32 35 37 41 37 31 27 25 24 24 26 27 30 30 30 32 32 31 27 28 29 30 31 29 30 29 31 36 35 34
34 33 29 27 29 31 32 31 29 27 31 31 30 32 33 32 32 30 30 28 27 26 26 27 29 30 31 29 28 29 29 27 26 27 27 28 29 27 28 24 26 30 30 33
31 31 31 30 31 32 28 25 27 28 31 30 33 30 29 29 31 30 30 32 30 32 29 29 31 31 30 32 33 29 28 26 25 25 25 27 26 25 28 28 27 28 28 28
31 31 32 31 30 30 33 25 21 24 33 31 33 32 30 33 36 38 36 35 33 33 29 30 30 35 35 30 29 26 25 25 24 26 26 26 24 22 23 26 27 27 28 28
33 32 34 34 35 33 30 32 36 38 35 36 34 35 36 38 38 38 35 34 38 32 28 27 30 35 31 26 24 23 24 24 26 27 26 26 24 23 20 21 24 24 21 18
33 33 34 33 31 30 28 27 29 28 30 33 33 35 34 39 38 41 41 36 36 28 25 26 28 28 26 24 23 24 25 26 26 27 28 27 26 25 25 26 24 24 20 17
31 31 36 32 33 28 31 20 20 26 27 31 34 33 35 38 42 43 33 28 24 23 25 23 23 23 24 26 27 27 28 28 29 30 32 30 28 28 26 27 26 25 25 21
30 31 31 31 27 28 19 20 18 21 25 29 34 34 34 31 24 21 21 18 20 19 19 20 22 24 26 29 31 31 30 30 30 32 34 36 33 28 27 27 28 25 24 24
28 21 20 22 21 21 19 16 19 23 22 29 24 22 20 17 16 15 13 15 16 16 18 20 23 25 28 30 31 31 31 31 32 32 28 31 34 32 29 26 26 25 24 23
21 17 20 19 18 17 6 20 20 22 23 20 14 11 13 13 13 10 11 13 14 16 18 18 17 19 21 24 26 28 29 29 30 29 24 27 30 32 32 31 27 23 23 22
15 19 18 15 19 19 17 22 21 22 18 14 14 15 15 13 10 11 12 13 14 10 9 11 14 17 19 21 24 26 27 26 25 26 23 24 27 29 30 29 29 27 23 23
16 19 15 15 18 17 18 21 22 19 18 15 16 17 14 11 11 13 12 9 6 8 11 13 15 18 19 20 21 21 19 18 22 23 24 21 25 27 29 30 28 28 26 23
20 19 17 15 16 16 19 21 23 21 18 16 16 15 12 13 13 13 10 6 7 10 14 16 17 18 18 18 18 16 17 19 22 23 25 20 21 25 27 30 28 28 29 27
16 21 19 18 17 23 24 26 24 19 16 16 16 14 14 15 15 12 9 7 9 12 15 17 19 18 18 18 17 17 18 20 21 21 20 18 20 23 26 29 29 28 28 28
20 19 17 19 21 23 24 25 23 19 15 16 16 15 16 15 14 12 11 10 11 14 16 18 19 19 18 17 17 18 20 20 21 22 19 18 18 19 22 25 27 29 30 31
20 20 21 19 18 17 18 20 19 19 17 17 16 15 16 15 14 13 13 13 13 16 17 19 20 19 18 18 18 18 21 22 23 23 23 22 22 23 25 28 30 31 33 34
Wind_Direction
270 271 272 269 270 272 267 266 268 268 267 268 268 269 272 277 272 270 274 273 272 271 271 271 272 272 273 274 274 275 275 277 278 280 282 283 283 282 281 280 281 282 282 282
270 271 267 272 274 273 273 270 270 270 270 269 270 270 271 272 276 276 271 272 273 275 275 275 275 274 273 274 274 275 276 277 278 279 280 280 280 280 280 280 280 281 282 281
272 274 276 276 274 274 273 273 273 273 274 276 276 272 274 273 271 274 275 275 277 276 275 275 273 273 273 274 274 276 277 278 278 279 280 280 279 279 280 280 279 279 280 282
273 274 275 277 278 276 275 274 274 277 276 276 276 275 274 273 277 277 279 277 277 279 277 276 276 275 275 275 276 276 277 278 278 278 278 278 278 278 278 278 279 281 284 285
277 278 278 280 277 278 277 277 276 275 274 275 276 276 276 281 281 275 274 279 281 279 277 277 276 275 276 276 277 277 277 278 278 278 279 279 279 278 278 280 283 285 286 285
271 273 275 273 274 275 276 277 277 277 278 276 278 283 279 279 265 269 285 284 278 276 273 272 271 271 272 273 274 275 276 278 279 280 280 280 281 284 284 285 286 287 290 286
275 276 276 277 277 280 279 278 279 278 275 282 289 276 268 267 280 277 278 276 278 278 278 276 273 274 275 274 274 275 276 278 280 282 284 286 288 288 287 288 289 293 287 281
278 279 281 279 282 280 281 285 285 283 280 275 254 277 279 275 283 279 275 277 278 278 278 281 280 278 273 272 274 277 279 282 284 286 286 289 290 289 291 293 295 293 292 290
276 276 272 282 282 283 289 289 286 284 289 284 290 285 279 275 277 280 276 276 279 282 284 284 281 277 277 278 279 281 284 286 287 287 288 290 290 293 294 295 295 294 293 290
274 273 274 279 287 288 290 289 290 289 290 281 284 279 267 276 275 267 279 285 285 288 288 280 277 279 282 285 287 288 290 290 288 287 292 292 293 292 299 296 294 293 294 292
269 274 278 283 292 293 290 298 294 279 265 273 277 265 259 262 267 282 286 283 283 281 279 284 290 292 292 287 287 290 289 289 288 290 290 292 295 295 302 294 295 292 291 288
265 271 277 288 291 293 288 281 265 269 271 268 271 271 271 275 280 283 286 286 277 279 284 282 285 292 289 283 286 293 288 285 287 287 289 294 296 308 316 309 301 300 300 291
266 277 283 290 292 294 290 278 266 261 267 264 270 271 280 287 290 289 287 282 281 280 284 286 278 285 292 284 284 291 286 288 284 286 291 293 300 315 318 323 326 322 321 317
271 277 284 287 284 273 276 262 251 256 262 272 267 272 276 290 293 288 280 282 286 280 278 287 284 283 288 289 293 286 284 282 286 289 285 288 295 302 313 320 325 322 320 322
272 278 280 281 285 285 279 268 256 251 272 271 276 275 276 277 279 285 287 284 279 287 272 279 280 282 287 292 289 288 289 288 285 280 282 281 284 287 298 312 313 324 315 316
271 279 278 285 283 280 269 267 267 266 273 273 276 280 281 271 274 284 286 280 277 277 276 278 271 276 286 291 293 290 287 285 279 277 278 277 273 275 281 290 299 307 316 314
278 275 279 276 283 269 268 285 265 263 269 275 277 278 277 278 280 283 276 269 265 268 273 272 277 283 289 291 291 288 283 282 282 280 278 276 271 271 277 282 290 298 299 313
273 280 275 276 274 268 284 270 275 272 271 273 276 280 281 280 273 267 264 258 254 270 270 278 285 290 290 289 288 287 284 281 282 286 288 283 269 267 274 279 282 286 289 291
272 269 286 284 276 271 266 276 283 266 268 277 278 275 270 266 256 252 253 253 262 274 281 286 286 286 284 285 286 287 286 282 279 286 289 292 285 270 267 275 279 279 281 285
256 268 287 283 273 261 281 258 265 260 281 271 276 278 285 274 264 255 262 269 276 279 277 277 287 297 301 301 297 294 291 287 285 286 285 295 292 288 280 272 269 277 281 280
266 276 283 267 256 244 243 265 267 272 268 261 276 285 286 276 266 266 270 271 266 271 294 311 318 317 317 317 313 305 295 289 289 286 281 290 290 291 289 285 281 269 273 281
266 276 282 263 260 261 251 262 271 276 253 261 269 282 277 270 268 269 263 260 289 326 334 331 333 332 327 322 314 313 306 303 288 289 285 295 297 295 291 288 284 280 268 270
264 273 261 259 259 268 265 266 274 279 254 266 272 269 264 265 264 257 256 282 317 333 339 336 335 332 326 318 310 310 305 303 304 290 293 290 300 301 299 299 285 284 281 276
255 264 245 244 252 257 265 272 276 264 250 265 268 260 260 261 259 256 267 293 319 327 327 327 329 330 326 317 304 296 296 299 300 294 286 292 300 304 308 306 300 294 284 282
235 240 242 249 261 269 272 272 271 256 251 267 260 255 258 260 262 271 281 297 312 316 320 321 323 325 322 318 304 288 289 294 293 285 281 283 290 299 302 302 300 297 295 290
238 236 243 253 264 263 261 265 266 250 251 260 256 258 262 266 271 279 286 297 306 312 315 316 315 316 317 314 308 294 286 288 288 282 278 277 281 288 292 292 292 292 292 292
Height
5762 5764 5764 5763 5760 5763 5763 5763 5761 5762 5761 5757 5757 5757 5757 5748 5749 5751 5750 5748 5746 5745 5746 5743 5742 5740 5737 5736 5734 5733 5731 5729 5728 5726 5724 5723 5721 5719 5717 5716 5714 5712 5711 5709
5754 5754 5752 5752 5755 5752 5752 5751 5752 5751 5749 5747 5745 5747 5746 5744 5736 5736 5740 5735 5734 5734 5733 5731 5729 5727 5724 5723 5721 5719 5717 5716 5714 5712 5711 5709 5707 5705 5703 5701 5698 5696 5694 5691
5744 5744 5742 5744 5743 5742 5742 5740 5740 5738 5737 5736 5732 5736 5734 5733 5728 5721 5725 5723 5722 5720 5717 5717 5714 5713 5711 5710 5707 5705 5704 5702 5700 5698 5696 5695 5693 5691 5689 5686 5683 5679 5676 5674
5734 5734 5735 5732 5732 5731 5731 5730 5727 5727 5725 5725 5720 5720 5722 5720 5715 5712 5710 5707 5705 5705 5703 5702 5700 5698 5697 5695 5694 5692 5690 5688 5686 5684 5682 5681 5679 5676 5673 5671 5667 5663 5659 5657
5724 5725 5724 5724 5722 5719 5719 5716 5715 5712 5711 5710 5711 5702 5715 5707 5702 5697 5695 5695 5693 5692 5690 5688 5686 5684 5683 5681 5680 5678 5676 5674 5672 5671 5669 5667 5664 5661 5658 5655 5651 5647 5643 5640
5713 5711 5712 5710 5708 5706 5705 5703 5702 5700 5698 5695 5698 5693 5701 5697 5689 5685 5679 5681 5679 5677 5676 5674 5673 5671 5670 5669 5667 5665 5663 5661 5659 5657 5655 5653 5650 5646 5643 5640 5636 5632 5628 5624
5699 5699 5697 5697 5695 5693 5693 5691 5690 5689 5689 5687 5691 5688 5690 5682 5680 5676 5671 5669 5666 5664 5663 5663 5662 5661 5660 5658 5656 5654 5652 5649 5648 5646 5644 5642 5638 5635 5630 5627 5622 5618 5614 5611
5688 5687 5684 5684 5687 5683 5683 5683 5682 5679 5680 5681 5682 5678 5677 5671 5668 5665 5660 5658 5658 5656 5655 5654 5652 5651 5649 5648 5647 5645 5643 5641 5639 5636 5634 5631 5628 5623 5619 5615 5610 5606 5604 5600
5676 5677 5674 5674 5673 5675 5674 5676 5674 5670 5671 5664 5667 5665 5662 5661 5659 5655 5651 5649 5648 5648 5647 5646 5644 5642 5640 5639 5637 5636 5634 5632 5629 5627 5624 5621 5619 5615 5611 5606 5600 5596 5594 5591
5667 5667 5665 5664 5667 5668 5667 5668 5666 5662 5660 5656 5659 5659 5654 5651 5648 5645 5645 5643 5641 5641 5639 5638 5637 5635 5633 5631 5629 5627 5625 5623 5621 5618 5616 5613 5611 5608 5603 5598 5593 5588 5585 5582
5658 5658 5660 5658 5660 5660 5660 5656 5655 5654 5654 5650 5647 5650 5645 5643 5642 5640 5639 5637 5635 5633 5632 5631 5630 5628 5626 5624 5622 5620 5617 5615 5613 5611 5609 5607 5604 5601 5596 5591 5585 5582 5577 5575
5649 5651 5653 5653 5651 5651 5650 5650 5648 5647 5646 5643 5639 5639 5636 5636 5636 5634 5632 5629 5628 5627 5625 5624 5623 5621 5619 5617 5615 5613 5610 5608 5606 5604 5603 5600 5598 5594 5590 5584 5579 5574 5570 5566
5644 5645 5643 5646 5642 5640 5640 5638 5637 5637 5635 5632 5631 5633 5629 5628 5626 5625 5624 5623 5622 5620 5619 5617 5616 5614 5612 5610 5608 5605 5603 5602 5600 5598 5597 5595 5592 5588 5584 5579 5574 5569 5564 5560
5636 5637 5636 5636 5636 5633 5633 5631 5630 5629 5625 5626 5624 5624 5625 5621 5620 5616 5616 5615 5613 5612 5612 5610 5609 5607 5605 5602 5601 5598 5597 5595 5593 5592 5591 5589 5586 5583 5579 5575 5572 5567 5562 5557
5626 5628 5627 5626 5625 5624 5623 5621 5619 5619 5620 5616 5617 5617 5618 5616 5612 5610 5606 5608 5605 5604 5604 5603 5602 5600 5597 5596 5594 5592 5590 5588 5587 5585 5583 5582 5580 5577 5574 5572 5569 5565 5561 5556
5618 5620 5617 5616 5614 5612 5610 5610 5610 5612 5612 5610 5610 5609 5609 5605 5604 5602 5600 5599 5598 5598 5596 5595 5595 5593 5592 5589 5587 5585 5584 5582 5581 5579 5577 5576 5574 5572 5569 5568 5566 5563 5559 5555
5611 5609 5608 5606 5604 5602 5600 5603 5604 5604 5605 5605 5602 5602 5599 5596 5595 5592 5591 5590 5591 5591 5590 5589 5588 5587 5585 5583 5581 5579 5578 5576 5574 5572 5571 5569 5567 5565 5563 5562 5561 5559 5556 5553
5601 5600 5598 5596 5595 5593 5598 5597 5598 5598 5598 5597 5595 5594 5591 5588 5585 5585 5585 5585 5585 5585 5585 5584 5582 5580 5579 5576 5574 5572 5570 5569 5567 5566 5563 5561 5559 5557 5556 5555 5554 5553 5552 5549
5593 5593 5590 5588 5588 5589 5590 5592 5595 5593 5594 5591 5588 5586 5584 5583 5581 5581 5580 5580 5581 5580 5580 5578 5577 5574 5572 5569 5566 5564 5562 5561 5560 5558 5556 5554 5552 5550 5549 5549 5548 5546 5545 5544
5586 5585 5585 5583 5583 5584 5588 5587 5588 5587 5588 5585 5583 5582 5580 5579 5579 5579 5577 5577 5577 5576 5575 5573 5570 5568 5565 5562 5559 5556 5555 5553 5552 5551 5549 5548 5546 5544 5543 5541 5540 5540 5539 5538
5580 5580 5579 5578 5578 5580 5583 5581 5583 5584 5585 5581 5580 5579 5577 5576 5575 5575 5575 5574 5573 5572 5569 5567 5564 5561 5558 5555 5552 5550 5547 5546 5545 5544 5542 5541 5539 5538 5537 5535 5534 5533 5532 5532
5576 5575 5574 5575 5575 5576 5578 5577 5579 5578 5577 5577 5576 5574 5573 5572 5572 5572 5572 5571 5569 5567 5564 5562 5558 5555 5553 5550 5547 5544 5542 5540 5539 5538 5536 5535 5534 5532 5531 5530 5528 5527 5526 5525
5570 5572 5573 5574 5573 5572 5572 5572 5572 5572 5572 5572 5572 5571 5570 5570 5569 5569 5568 5566 5564 5562 5559 5557 5554 5551 5548 5545 5543 5540 5538 5536 5534 5533 5531 5530 5529 5527 5525 5524 5522 5521 5519 5518
5567 5566 5568 5568 5570 5568 5568 5568 5567 5567 5567 5568 5568 5567 5567 5567 5566 5565 5564 5562 5560 5557 5555 5553 5550 5546 5543 5540 5538 5536 5534 5532 5529 5527 5526 5525 5524 5522 5520 5519 5517 5515 5513 5512
5561 5562 5563 5564 5565 5563 5563 5562 5562 5562 5563 5563 5563 5563 5564 5563 5562 5561 5560 5558 5556 5554 5551 5549 5546 5542 5538 5535 5533 5531 5529 5527 5525 5523 5521 5519 5517 5516 5514 5512 5510 5508 5506 5504
5556 5558 5559 5560 5559 5559 5558 5557 5557 5558 5558 5558 5559 5559 5559 5558 5558 5556 5555 5554 5551 5549 5547 5544 5541 5537 5533 5530 5527 5525 5523 5521 5520 5518 5515 5513 5511 5509 5507 5505 5503 5501 5498 5496